This is the latest recevied weather packets stored in our database for station/object KQ7A. If no packets are shown the sender has not sent any weather packets the latest 10 day(s).
| Time | Temp. | Humidity | Pressure | Rain* | Wind** | Luminosity | Snow |
|---|---|---|---|---|---|---|---|
| 1777409207 | 12.78° C | 44% | 1020.1 hPa | 0 mm | - | 247 W/m² | - |
| 1777408903 | 12.78° C | 40% | 1020.1 hPa | 0 mm | - | 196 W/m² | - |
| 1777408600 | 12.78° C | 41% | 1020 hPa | 0 mm | - | 157 W/m² | - |
| 1777408296 | 12.78° C | 40% | 1020.3 hPa | 0 mm | - | 145 W/m² | - |
| 1777407996 | 12.78° C | 41% | 1020.3 hPa | 0 mm | - | 137 W/m² | - |
| 1777407693 | 13.33° C | 43% | 1020 hPa | 0 mm | - | 138 W/m² | - |
| 1777407387 | 13.33° C | 42% | 1020.1 hPa | 0 mm | - | 148 W/m² | - |
| 1777407082 | 13.33° C | 40% | 1020 hPa | 0 mm | - | 179 W/m² | - |
| 1777406778 | 13.33° C | 41% | 1020 hPa | 0 mm | - | 199 W/m² | - |
| 1777406473 | 13.33° C | 40% | 1019.9 hPa | 0 mm | - | 233 W/m² | - |
| 1777406169 | 13.89° C | 39% | 1020 hPa | 0 mm | - | 215 W/m² | - |
| 1777405864 | 14.44° C | 39% | 1019.9 hPa | 0 mm | - | 917 W/m² | - |
| 1777405560 | 14.44° C | 41% | 1020.1 hPa | 0 mm | - | 901 W/m² | - |
| 1777405257 | 14.44° C | 45% | 1020 hPa | 0 mm | - | 864 W/m² | - |
| 1777404955 | 15° C | 40% | 1020.3 hPa | 0 mm | - | 867 W/m² | - |
| 1777404646 | 14.44° C | 48% | 1020.1 hPa | 0 mm | - | 868 W/m² | - |
| 1777404343 | 14.44° C | 43% | 1020.5 hPa | 0 mm | - | 842 W/m² | - |
| 1777404039 | 15° C | 40% | 1020.4 hPa | 0 mm | - | 834 W/m² | - |
| 1777403734 | 14.44° C | 38% | 1020.3 hPa | 0 mm | - | 851 W/m² | - |
| 1777403433 | 13.89° C | 40% | 1020.4 hPa | 0 mm | - | 857 W/m² | - |
| 1777403133 | 13.89° C | 40% | 1020.3 hPa | 0 mm | - | 860 W/m² | - |
| 1777402829 | 13.89° C | 44% | 1020.4 hPa | 0 mm | - | 863 W/m² | - |
| 1777402526 | 13.89° C | 45% | 1020.7 hPa | 0 mm | - | 853 W/m² | - |
| 1777402223 | 12.78° C | 43% | 1020.7 hPa | 0 mm | - | 867 W/m² | - |
| 1777401918 | 13.33° C | 45% | 1020.6 hPa | 0 mm | - | 901 W/m² | - |
* Rain latest hour (hover to see other rain measurements)
** Current wind speed in m/s (hover to see current wind gust speed)